Location: Newark
(45.5000°N, 11.4167°E)
Time: 00:07:02
(UTC+00:00)

Transit 2A Rocket - Pass Details

Date: 03 September 2019
Orbit: 594 x 910 km, 66.7° (Epoch: 17 October)

Event Time Altitude Azimuth Distance (km) Brightness Sun altitude
Rises 23:13:58 0° 332° (NNW) 3,005 8.8 -37.1°
Reaches altitude 10° 23:16:32 10° 342° (NNW) 2,044 7.9 -37.1°
Enters shadow 23:17:42 16° 351° (N) 1,650 7.3 -37.1°
Maximum altitude 23:20:40 33° 47° (NE) 1,049 - -37.1°
Drops below altitude 10° 23:24:36 10° 112° (ESE) 1,939 - -37.1°
Sets 23:26:59 0° 122° (ESE) 2,826 - -37.0°
